This is the latest recevied weather packets stored in our database for station/object WW5JC. If no packets are shown the sender has not sent any weather packets the latest 10 day(s).
| Time | Temp. | Humidity | Pressure | Rain* | Wind** | Luminosity | Snow |
|---|---|---|---|---|---|---|---|
| 1777950354 | 21.11° C | 77% | 1009 hPa | 0 mm | - | 0 W/m² | - |
| 1777950049 | 21.11° C | 77% | 1009.1 hPa | 0 mm | - | 0 W/m² | - |
| 1777949745 | 21.11° C | 77% | 1009.1 hPa | 0 mm | - | 0 W/m² | - |
| 1777949445 | 20.56° C | 78% | 1008.9 hPa | 0 mm | - | 0 W/m² | - |
| 1777949141 | 20.56° C | 79% | 1008.9 hPa | 0 mm | - | 0 W/m² | - |
| 1777948838 | 20.56° C | 79% | 1008.7 hPa | 0 mm | - | 0 W/m² | - |
| 1777948535 | 20° C | 79% | 1008.9 hPa | 0 mm | - | 0 W/m² | - |
| 1777948233 | 20° C | 79% | 1008.9 hPa | 0 mm | - | 0 W/m² | - |
| 1777947930 | 20° C | 79% | 1008.9 hPa | 0 mm | - | 0 W/m² | - |
| 1777947627 | 20.56° C | 79% | 1008.9 hPa | 0 mm | - | 0 W/m² | - |
| 1777947324 | 20.56° C | 79% | 1008.8 hPa | 0 mm | - | 0 W/m² | - |
| 1777947021 | 20.56° C | 78% | 1008.9 hPa | 0 mm | - | 0 W/m² | - |
| 1777946714 | 20.56° C | 77% | 1008.8 hPa | 0 mm | - | 0 W/m² | - |
| 1777946412 | 20.56° C | 77% | 1008.9 hPa | 0 mm | - | 0 W/m² | - |
| 1777946109 | 21.11° C | 75% | 1008.8 hPa | 0 mm | - | 0 W/m² | - |
| 1777945806 | 21.67° C | 74% | 1008.7 hPa | 0 mm | - | 0 W/m² | - |
| 1777945503 | 21.67° C | 73% | 1008.6 hPa | 0 mm | - | 0 W/m² | - |
| 1777945200 | 21.67° C | 73% | 1008.6 hPa | 0 mm | - | 0 W/m² | - |
| 1777944897 | 21.67° C | 73% | 1008.8 hPa | 0 mm | - | 0 W/m² | - |
| 1777944594 | 21.67° C | 71% | 1008.6 hPa | 0 mm | - | 0 W/m² | - |
| 1777944292 | 21.67° C | 71% | 1008.8 hPa | 0 mm | - | 0 W/m² | - |
| 1777943989 | 21.67° C | 71% | 1008.6 hPa | 0 mm | - | 0 W/m² | - |
| 1777943684 | 22.22° C | 71% | 1008.2 hPa | 0 mm | - | 1 W/m² | - |
| 1777943382 | 22.22° C | 71% | 1008.6 hPa | 0 mm | - | 1 W/m² | - |
| 1777943077 | 22.22° C | 70% | 1008.3 hPa | 0 mm | - | 2 W/m² | - |
* Rain latest hour (hover to see other rain measurements)
** Current wind speed in m/s (hover to see current wind gust speed)